Location: Unspecified
(0.0000°N, 0.0000°E)
Time: 07:27:50
(UTC+00:00)

S-56A Canister/Altair - Pass Details

Date: 01 June 2024
Orbit: 637 x 2489 km, 38.9° (Epoch: 22 June)

Event Time Altitude Azimuth Distance (km) Brightness Sun altitude
Rises 12:06:19 0° 304° (NW) 3,910 11.3 67.7°
Reaches altitude 10° 12:09:29 10° 300° (WNW) 2,694 10.7 67.7°
Maximum altitude 12:15:24 55° 223° (SW) 911 8.6 67.4°
Drops below altitude 10° 12:19:57 10° 145° (SE) 2,080 9.7 67.2°
Sets 12:22:08 0° 140° (SE) 2,941 10.3 67.1°
